Address 0xab3c96d5492a54014e604bda3bff6f6c4157f6fa 4

 
Txn Hash
Block
From
To
Value [Txn Fee]
0x9a476a240fb0a0e971d4f3f73e4e3a20570cfdc4b7e81989b293325199eab30a86628152021-06-27 13:09:2535 days 18 hrs ago0xab3c96d5492a54014e604bda3bff6f6c4157f6faOUT Binance: BUSD Stablecoin0 BNB0.00022077
0x93df63cba936cfe446da90f2f757d19211bc3323fee4ec2ff4f62c719f859f6485681282021-06-24 6:04:4539 days 1 hr ago0xab3c96d5492a54014e604bda3bff6f6c4157f6faOUT 0x2cc37db18635e506c4ba3749f1f71312bf37adbe0 BNB0.00041886
0xe10976b1986908cfc44379e53b2865fbd8bc88e14f3149a36ca461fc14c070a485680252021-06-24 5:59:3639 days 1 hr ago0xab3c96d5492a54014e604bda3bff6f6c4157f6faOUT 0x2cc37db18635e506c4ba3749f1f71312bf37adbe0 BNB0.000639105
0x4acba297415b96684426251b6ee5eb5a470d3ec79f54f47dd969f94b2eab364f85680212021-06-24 5:59:2439 days 1 hr ago0xab3c96d5492a54014e604bda3bff6f6c4157f6faOUT Binance: BUSD Stablecoin0 BNB0.00022203
0xa28633cbd9905d8ed6394a6ff15f5fecf5e8eff88dd49344ad1a406d1c03ec4a80397982021-06-05 19:09:0957 days 12 hrs ago0xab3c96d5492a54014e604bda3bff6f6c4157f6faOUT0xb478d73d874d09c1a5daa82f89d6d92d65e5480a0.005 BNB0.000105
0x6e0125acc00e556779e6d41c203bfb9f709c7514283f00d597f5447e3718b76b80397492021-06-05 19:06:4257 days 12 hrs ago0xab3c96d5492a54014e604bda3bff6f6c4157f6faOUT0xb478d73d874d09c1a5daa82f89d6d92d65e5480a0.001 BNB0.000105
0x42d5f5d90504ad11f51b45a8d1bcb9bae2e0e59b2beb65a7c181d19eeef8cd8a80396612021-06-05 19:02:1857 days 12 hrs ago0xab3c96d5492a54014e604bda3bff6f6c4157f6faOUT BUSD-T Stablecoin0 BNB0.000255515
0xbb1b0815d1e3ec32e247de9202c3201d89dd4520235e514f5f05a847b86901b180392922021-06-05 18:43:5157 days 12 hrs ago0xab3c96d5492a54014e604bda3bff6f6c4157f6faOUT0xb478d73d874d09c1a5daa82f89d6d92d65e5480a0.002 BNB0.000105
0xe110187c4d9550ff6ffec6f61af24a1fb11cf18f3c008682d09297bdaad5ab2076218162021-05-22 5:24:2072 days 1 hr ago0xab3c96d5492a54014e604bda3bff6f6c4157f6faOUT 0x21a3512a7dd1dab05b1796accfb1d72463048c740.000001 BNB0.000151615
0xe150de6d36dfb8d77746e07e3b601385ffc11a33366ddd8cc9e688d7d0d27d5375426052021-05-19 11:01:2974 days 20 hrs ago0xab3c96d5492a54014e604bda3bff6f6c4157f6faOUT 0x833ba1ab69309dc6202826800968921f0fdc168c0 BNB0.0172358
0x3c022925602b3613398ed9430dce4b3f5aad79a55a7ba13dbf55a98eb5616b0275426012021-05-19 11:01:1774 days 20 hrs ago0xab3c96d5492a54014e604bda3bff6f6c4157f6faOUT Just Liquidity: JulD Token0 BNB0.000220765
0x47d428138feab664acd60b677d3934b92b909a3edf56c21dc2ebce93509c7b3675425962021-05-19 11:01:0274 days 20 hrs ago0xab3c96d5492a54014e604bda3bff6f6c4157f6faOUT Binance: BUSD Stablecoin0 BNB0.00012459
0x642769a8278a2da11d674095a5b3ae297137452ebbf44dd607e61774e02c916875425922021-05-19 11:00:5074 days 20 hrs ago0xab3c96d5492a54014e604bda3bff6f6c4157f6faOUT Binance: BUSD Stablecoin0 BNB0.00022059
0x97ef581fe939a019791854fa38fef82b7ddc0edb0cb08ec7d42280e08067df4175425682021-05-19 10:59:3874 days 20 hrs ago0xab3c96d5492a54014e604bda3bff6f6c4157f6faOUT Metamask: Swap Router0.005 BNB0.001160985
0x96eb2b01591151f8f8cbd50ca3db9b4049d236e0d07f87f46734cfebdc6b0e7675425572021-05-19 10:59:0574 days 20 hrs ago0xab3c96d5492a54014e604bda3bff6f6c4157f6faOUT Metamask: Swap Router0.005 BNB0.001156525
0x706117689784ed4181560bd0839baaf033c6b6649b95fb35c21cde25a254c3ee75425462021-05-19 10:58:3274 days 20 hrs ago0xab3c96d5492a54014e604bda3bff6f6c4157f6faOUT Metamask: Swap Router0.025 BNB0.001076325
0x5ffe79ff41d838aae9c20b67720e285bcf854b8d3ff5a74c3c7b8a4b13b58de875424922021-05-19 10:55:5074 days 20 hrs ago0xab3c96d5492a54014e604bda3bff6f6c4157f6faOUT 0x833ba1ab69309dc6202826800968921f0fdc168c0 BNB0.001252205
0xba62db1fbcae1a7405a0d729109bc7f774cfdb580ea234b55d8b0d9a91bef51275393832021-05-19 8:20:2274 days 23 hrs ago0xab3c96d5492a54014e604bda3bff6f6c4157f6faOUT 0x833ba1ab69309dc6202826800968921f0fdc168c0 BNB0.01716195
0xca5e80f1eba6c32729ff05a5fd255f0a90ddff627189df6bb85712c5bb8bc89c75392752021-05-19 8:14:5874 days 23 hrs ago0xab3c96d5492a54014e604bda3bff6f6c4157f6faOUT Just Liquidity: JulD Token0 BNB0.000220645
0x6d7571b311f7830a87536500fed0b856d2541fd6eb6835111fab43fbdea554c175391692021-05-19 8:09:4074 days 23 hrs ago0xab3c96d5492a54014e604bda3bff6f6c4157f6faOUT 0x833ba1ab69309dc6202826800968921f0fdc168c0 BNB0.01723754
0x850c28743e227a0e8b8101e7226de7e58d350b9c76fd7a788ae09a71602cb54075391212021-05-19 8:07:1674 days 23 hrs ago0xab3c96d5492a54014e604bda3bff6f6c4157f6faOUT 0x4b0f1812e5df2a09796481ff14017e60055080030 BNB0.000221455
0x0cf2abd2148cd1f5b6ab95dc20131ea5e7b9f6e4bde74615fa84f696eb2134f075391152021-05-19 8:06:5874 days 23 hrs ago0xab3c96d5492a54014e604bda3bff6f6c4157f6faOUT BUSD-T Stablecoin0 BNB0.00022065
0x6ff0a1835467c8b600b28d9d83d9d3b82d94bb1c0205c1f3e47b6bcff97de95e75389812021-05-19 8:00:1674 days 23 hrs ago0xab3c96d5492a54014e604bda3bff6f6c4157f6faOUT Metamask: Swap Router0.05 BNB0.00117534
0x398049e3da2c013a3a2a6a084e43a01451c17e79ac3603196f6ad8256dc11a6a75387632021-05-19 7:49:2174 days 23 hrs ago0xab3c96d5492a54014e604bda3bff6f6c4157f6faOUT Metamask: Swap Router0.01 BNB0.001175065
0x5f8afdc322b8fd127404a3bab4be66ab880437cd1518744dc1abbfb623631e6075387432021-05-19 7:48:2174 days 23 hrs ago0xab3c96d5492a54014e604bda3bff6f6c4157f6faOUT Metamask: Swap Router0.01 BNB0.001170605
[ Download CSV Export 
Parent Txn Hash Block From To Value
Loading

Contract Name:
0 BNB

Compiler Version
0

Optimization Enabled:
0 BNB

Other Settings:
-NA-
Block Transaction Gas Used Reward
Age Block Fee Address BC Fee Address Voting Power Jailed Incoming
Block Uncle Number Difficulty Gas Used Reward
Loading
Loading
Make sure to use the "Vote Down" button for any spammy posts, and the "Vote Up" for interesting conversations.